SCP
1 1 2 1 1 1 1 2 2 3 3 4 4 3 3 2 2 2 2 1 1 1 1 1 1 1 1 1 0 1 1 1 0 0 0 0 0 0 0 0 0 0 0
2 2 3 2 2 2 2 2 3 3 4 5 5 4 3 3 2 2 2 2 1 1 1 1 1 1 1 1 1 1 1 1 1 0 0 0 0 0 0 0 0 0 0
2 3 3 3 3 3 2 3 4 5 5 6 6 6 5 4 3 2 2 2 1 1 1 1 1 1 1 1 1 1 1 1 1 1 1 1 1 1 0 0 0 0 0
1 2 3 3 4 4 4 4 5 5 6 6 6 6 5 4 3 2 2 1 1 1 1 1 1 1 1 1 1 1 1 1 1 1 1 1 1 1 1 0 0 0 0
1 1 2 3 4 4 5 5 5 6 7 7 6 5 5 4 3 3 2 2 1 1 1 1 1 1 1 1 1 1 1 1 1 1 1 1 1 1 1 1 0 0 0
1 1 1 2 3 4 4 5 6 6 7 7 5 4 4 4 3 3 3 2 2 1 1 1 1 1 1 1 1 1 1 1 1 1 1 1 1 1 1 1 1 1 0
0 1 1 1 2 2 3 4 5 5 6 6 4 3 3 4 4 4 3 2 2 1 1 1 1 1 1 1 1 1 1 1 1 1 1 1 1 1 1 1 1 1 1
0 0 1 1 1 1 1 2 3 4 4 4 3 3 3 3 3 3 3 2 1 1 1 1 0 0 0 0 0 0 0 0 0 0 1 1 1 1 1 1 1 1 1
0 0 1 1 1 1 1 1 2 3 3 3 3 2 2 2 2 2 1 1 1 1 1 0 0 0 0 0 0 0 0 0 0 0 0 1 1 1 1 1 1 1 1
0 0 0 0 0 0 0 0 1 1 2 2 2 1 1 1 1 1 1 0 0 0 0 0 0 0 0 0 0 0 0 0 0 0 0 0 1 1 1 1 1 1 1
0 0 0 0 0 0 0 0 0 0 1 1 1 1 1 1 0 0 0 0 0 0 0 0 0 0 0 0 0 0 0 0 0 0 0 0 0 0 0 1 1 1 1
0 0 0 0 0 0 0 0 0 0 0 0 0 0 0 0 0 0 0 0 0 0 0 0 0 0 0 0 0 0 0 0 0 0 0 0 0 0 0 0 0 0 0
0 0 0 0 0 0 0 0 0 0 0 0 0 0 0 0 0 0 0 0 0 0 0 0 0 0 0 0 0 0 0 0 0 0 0 0 0 0 0 0 0 0 0
0 0 0 0 0 0 0 0 0 0 0 0 0 0 0 0 0 0 0 0 0 0 0 0 0 0 0 0 0 0 0 0 0 0 0 0 0 0 0 0 0 0 0
0 0 0 0 0 0 0 0 0 0 0 0 0 0 0 0 0 0 0 0 0 0 0 0 1 1 0 0 0 0 0 0 0 0 0 0 0 0 0 0 0 0 0
0 0 0 0 0 0 0 0 0 0 0 0 0 0 0 0 0 0 0 0 0 0 1 1 1 1 1 0 0 0 0 0 0 0 0 0 0 0 0 0 0 0 0
0 0 0 0 0 0 0 0 0 0 0 0 0 0 0 0 0 0 0 0 0 1 1 1 1 1 0 0 0 0 0 1 0 0 0 0 0 0 0 0 0 0 0
0 0 0 0 0 0 0 0 0 0 0 0 0 0 0 0 0 0 0 0 0 0 0 0 0 0 0 0 0 0 1 1 1 1 0 0 0 0 0 0 0 0 0
0 0 0 0 0 0 0 0 0 0 0 0 0 0 0 0 0 0 0 0 0 0 0 0 0 0 0 0 0 1 1 1 1 1 1 1 0 0 0 0 0 0 0
0 0 0 0 0 0 0 0 0 0 0 0 0 0 0 0 0 0 0 0 0 0 0 0 0 0 0 0 0 1 1 1 1 1 1 0 0 0 0 0 0 0 0
0 0 0 0 0 0 0 0 0 0 0 0 0 0 0 0 0 0 0 0 0 0 0 0 0 0 0 0 0 0 1 1 1 1 1 0 0 0 0 0 0 0 0
0 0 0 0 0 0 0 0 0 0 0 0 0 0 0 0 0 0 0 0 0 0 0 0 0 0 0 0 0 0 0 0 0 1 1 0 0 0 0 0 0 0 0
0 0 0 0 0 0 0 0 0 0 0 0 0 0 0 0 0 0 0 0 0 0 0 0 0 0 0 0 0 0 0 0 0 0 0 0 0 0 0 0 0 0 0
0 0 0 0 0 0 0 0 0 0 0 0 0 0 0 0 0 0 0 0 0 0 0 0 0 0 0 0 0 0 0 0 0 0 0 0 0 0 0 0 0 0 0
0 0 0 0 0 0 0 0 0 0 0 0 0 0 0 0 0 0 0 0 0 0 0 0 0 0 0 0 0 0 0 0 0 0 0 0 0 0 0 1 1 1 0
0 0 0 0 0 0 0 0 0 0 0 0 0 0 0 0 0 0 0 0 0 0 0 0 0 0 0 0 0 0 0 0 0 0 0 0 0 0 0 1 1 0 0
Wind_Speed
11 9 8 8 10 13 15 16 15 15 12 10 9 7 7 6 6 6 8 9 9 9 8 6 8 7 7 9 9 7 8 6 6 5 5 6 7 5 4 4 4 3 2
14 12 10 7 8 11 14 17 17 15 14 11 10 8 7 5 5 5 7 9 9 10 9 10 8 8 7 9 9 8 6 6 6 6 5 5 6 6 6 5 5 5 4
16 15 13 10 8 7 10 12 14 15 14 12 9 7 6 4 4 4 4 7 8 8 8 8 8 8 8 8 9 9 10 7 8 8 6 5 4 3 6 8 6 5 4
16 15 14 13 11 9 6 7 9 10 10 10 8 8 5 3 2 1 2 4 6 7 7 7 7 7 6 7 8 9 8 8 7 7 7 8 5 4 3 5 6 6 6
15 14 13 12 11 10 6 3 4 7 8 8 8 8 6 4 3 2 1 1 3 4 5 6 6 6 5 6 7 7 8 7 7 7 6 7 5 8 6 4 4 4 6
14 13 12 11 9 9 7 7 9 9 9 8 9 11 9 7 4 3 2 1 1 2 5 5 5 5 5 6 6 6 8 7 8 7 7 6 6 7 7 6 4 4 4
12 12 12 10 9 8 8 8 10 10 9 9 9 11 10 7 4 2 1 1 2 3 5 5 5 4 4 4 5 6 6 7 8 8 7 7 7 6 6 6 5 4 4
11 10 10 9 8 8 8 9 10 10 9 8 8 8 8 4 2 1 1 3 3 3 5 6 5 5 5 4 5 5 6 6 7 8 8 6 7 7 7 6 6 5 5
11 9 9 8 7 8 8 9 9 9 8 8 6 7 6 3 1 1 2 3 4 4 6 7 6 6 5 5 5 4 5 5 6 6 7 7 6 7 7 7 7 6 6
10 9 9 8 7 7 7 7 7 7 6 6 5 4 3 0 2 3 5 6 6 6 7 7 7 6 6 5 5 5 4 5 5 5 7 7 6 6 7 7 7 7 7
10 9 8 7 6 6 6 6 5 6 6 5 4 3 0 3 5 6 6 6 6 7 7 7 7 7 7 6 5 5 5 5 6 6 7 7 7 6 6 6 6 7 7
10 9 8 7 6 6 5 4 4 4 3 3 2 1 4 6 7 7 6 6 6 6 7 7 7 6 6 6 6 6 6 6 5 5 6 7 6 7 6 6 7 7 7
12 11 10 9 8 8 6 5 4 3 2 2 2 2 3 3 3 3 2 3 4 5 6 7 7 7 7 7 7 7 7 6 6 6 6 6 6 7 6 7 7 6 6
13 12 11 10 10 9 9 7 5 4 2 1 2 2 3 3 3 2 1 2 2 4 5 7 7 8 8 8 8 8 7 7 7 6 5 6 6 6 6 6 6 6 6
13 13 12 11 11 11 11 10 10 9 7 7 7 6 5 5 4 4 3 2 2 3 4 5 6 7 7 7 8 8 8 8 8 7 6 5 3 4 4 4 4 4 4
12 12 12 12 12 12 11 11 11 10 10 10 9 8 7 7 7 6 5 5 4 3 2 2 3 4 3 4 4 8 9 9 9 8 6 5 7 7 7 5 4 4 3
12 12 12 12 11 11 11 11 11 10 11 11 10 9 9 9 8 8 8 7 6 6 5 5 3 3 5 6 5 8 9 9 9 8 7 4 4 5 6 8 8 7 5
11 11 10 10 10 10 10 10 10 10 11 11 10 10 9 9 9 9 9 8 7 7 7 7 7 6 8 10 7 5 10 8 8 7 7 7 7 6 4 5 6 5 5
9 8 8 8 8 9 9 9 10 10 10 10 10 9 9 9 9 8 8 7 7 7 6 7 7 6 8 12 11 9 3 3 5 5 6 6 6 6 2 6 5 4 3
8 8 8 8 8 7 6 7 8 9 8 8 8 8 8 8 8 8 7 6 5 6 5 6 6 7 7 12 13 11 2 1 1 2 3 1 2 2 3 7 5 5 2
8 8 7 7 6 6 5 6 7 8 6 6 6 6 7 7 7 6 6 6 6 6 5 6 6 7 8 9 12 12 5 4 2 1 2 2 2 2 4 7 6 2 3
9 9 8 7 6 5 5 5 5 4 3 3 4 5 5 5 5 5 5 6 6 6 6 6 6 5 6 7 8 9 8 8 4 2 2 1 1 3 4 6 2 0 3
9 8 8 8 6 5 5 5 3 1 1 1 3 3 4 4 5 5 5 5 5 5 5 5 6 6 5 5 6 5 4 5 3 2 3 4 4 5 6 4 3 4 4
9 8 9 8 8 7 5 5 3 2 2 2 3 3 4 5 6 4 4 4 5 5 6 6 6 6 5 7 7 6 4 2 2 1 1 2 1 1 1 2 3 3 2
8 8 8 9 9 8 6 5 4 3 3 1 2 3 4 5 5 5 4 4 5 6 5 5 5 6 7 9 11 8 7 6 4 3 1 1 1 2 2 2 2 2 3
8 8 8 9 9 9 7 5 4 4 4 1 2 2 3 3 4 4 5 4 3 4 6 8 8 6 7 10 10 10 12 10 6 2 2 3 3 2 2 2 3 3 2
Wind_Direction
340 330 312 291 270 256 241 226 215 206 199 189 188 186 194 198 204 211 215 213 215 219 218 222 216 210 214 218 223 220 221 223 221 228 225 220 228 234 206 228 234 209 160
349 346 333 311 276 258 247 235 217 208 198 191 186 186 182 187 196 212 218 219 219 222 223 221 220 219 223 227 229 223 226 221 214 227 238 238 210 212 217 212 228 229 189
352 350 348 343 322 286 261 244 225 206 196 187 175 162 150 145 166 198 211 220 221 221 223 225 219 223 221 223 226 224 224 221 221 229 232 250 257 215 194 208 213 221 221
352 351 353 354 352 340 309 257 220 194 179 170 167 154 144 142 166 186 204 216 219 216 215 220 218 219 221 224 227 227 229 226 223 226 238 250 266 259 224 198 214 214 224
351 351 353 355 358 -0 11 51 121 135 139 143 131 111 95 77 48 22 349 221 217 214 206 210 212 221 222 229 229 231 232 229 230 229 229 235 243 251 253 228 195 204 222
351 351 355 358 7 15 35 72 96 104 112 119 113 104 96 81 57 23 1 316 229 208 199 200 206 216 222 228 230 230 232 240 241 237 236 232 232 231 232 235 227 218 209
352 353 357 2 13 26 42 67 87 91 97 101 99 99 94 89 81 45 352 278 235 207 191 188 198 204 211 217 224 230 234 234 241 242 242 242 246 250 240 236 236 230 220
352 355 2 10 23 41 54 69 79 85 87 88 88 90 90 90 84 55 308 264 250 216 182 183 188 190 197 204 213 236 231 239 234 239 242 243 245 242 238 239 235 230 229
353 3 15 24 37 50 57 66 75 78 79 81 78 76 79 73 76 252 256 252 233 201 183 182 186 188 194 209 210 231 229 238 241 242 243 242 242 239 233 233 230 230 233
2 22 30 31 40 48 59 68 69 70 73 74 76 83 82 58 252 246 242 236 219 197 190 195 194 190 190 198 212 229 231 236 239 243 246 242 240 235 230 227 227 228 235
18 34 35 32 24 24 30 34 42 59 64 67 74 74 35 255 249 245 243 237 222 204 202 203 206 194 193 198 203 228 219 233 236 235 243 245 241 236 229 226 224 223 225
30 41 36 25 12 6 4 7 11 31 30 35 39 291 246 241 235 231 229 223 214 209 214 202 209 203 206 210 210 217 221 231 242 243 246 250 245 241 235 228 227 225 223
33 37 34 25 14 6 360 357 343 340 331 329 317 277 267 262 250 230 229 234 223 215 219 218 218 215 218 221 222 223 226 228 234 241 248 250 241 239 231 228 230 229 229
37 36 34 28 23 19 17 19 17 11 7 18 21 356 357 356 350 358 328 278 256 240 237 235 234 232 230 232 232 233 231 232 232 233 240 249 245 247 241 235 234 230 229
40 39 38 35 34 35 35 36 36 36 44 54 50 37 31 29 27 25 12 356 320 276 261 254 251 246 246 244 245 240 237 235 231 230 228 231 261 305 287 280 260 235 228
42 42 41 39 38 39 41 44 46 46 51 54 50 42 41 42 39 36 37 39 34 20 360 302 277 267 274 349 302 268 246 239 234 231 226 201 207 212 226 255 285 293 257
40 40 40 39 38 39 39 43 44 49 53 54 52 48 49 49 46 47 48 47 49 48 44 34 20 19 26 357 301 260 260 243 238 234 222 207 206 213 212 196 210 222 226
31 34 36 39 41 43 45 48 49 51 52 52 51 48 49 50 49 48 45 43 46 49 46 41 39 40 31 11 351 292 251 246 240 239 241 225 214 206 233 219 220 218 203
14 22 25 33 40 38 36 47 53 54 52 48 47 46 47 46 45 44 41 35 37 43 46 44 38 35 28 15 2 331 254 242 236 231 240 252 245 123 233 256 245 231 208
0 2 10 24 35 34 29 43 51 54 52 47 47 47 45 42 40 39 36 36 38 39 46 48 38 32 26 19 11 350 341 303 209 215 215 190 298 106 214 249 250 254 238
352 348 354 11 15 11 12 32 42 48 46 43 43 41 40 37 32 29 29 29 36 40 44 49 42 34 25 22 21 8 358 346 304 227 209 141 134 254 238 262 268 304 319
355 348 343 348 352 353 352 20 36 38 42 43 42 38 31 24 20 23 27 30 28 35 39 37 37 30 28 20 17 15 10 344 337 343 343 46 4 284 259 255 276 30 262
355 347 337 329 332 347 342 347 18 355 355 42 43 31 31 35 26 24 29 35 36 34 33 30 25 18 16 19 10 2 356 339 327 342 347 325 301 271 234 216 234 221 219
352 343 335 331 335 340 330 322 326 290 285 18 32 26 24 34 47 45 36 37 36 33 30 23 13 5 9 13 1 351 347 311 272 261 206 213 238 266 32 158 188 201 185
344 341 338 332 328 331 331 329 312 286 290 1 48 33 40 35 44 62 49 39 53 28 9 3 357 1 2 1 348 349 358 354 354 330 301 128 140 140 131 131 130 140 153
343 344 345 339 337 339 341 347 326 293 290 351 48 42 46 47 45 61 101 97 53 40 26 18 3 25 18 358 9 17 18 16 8 13 56 54 59 68 87 108 108 100 99